Simultaneous Nadir Overpasses (SNOs) Predictions

Prediction of SNOs between FY3D and TERRA Satellite Orbit:

Table of predicted SNOs for the next 14.0 days since TLE Epoch: 6/24/2023
Index Date (FY3D) Time (FY3D) Lat,Lon (FY3D) SZA (FY3D ) Date (TERRA) Time (TERRA) Lat,Lon (TERRA) SZA (TERRA ) Distance(km) Time Diff (sec)
1 06/26/2023 13:28:56 -73.63, 157.67 129.81 06/26/2023 13:29:23 -73.64, 157.75 129.81 2.53 27
2 06/26/2023 14:19:41 73.56, -34.85 50.12 06/26/2023 14:18:45 73.56, -34.75 50.11 2.99 56
3 06/29/2023 01:33:03 73.61, 156.72 50.28 06/29/2023 01:33:18 73.63, 156.72 50.29 1.34 15
4 06/29/2023 02:23:47 -73.56, -35.85 129.77 06/29/2023 02:22:43 -73.57, -35.75 129.77 3.20 64
5 07/01/2023 12:46:34 74.17, -12.94 50.99 07/01/2023 12:47:42 74.08, -10.95 50.89 61.41 68
6 07/01/2023 13:37:08 -73.63, 155.70 129.56 07/01/2023 13:37:15 -73.61, 155.68 129.58 1.77 7
7 07/01/2023 14:27:50 73.40, -36.47 50.22 07/01/2023 14:26:38 73.47, -36.95 50.29 17.17 72
8 07/04/2023 00:50:33 -73.84, -13.12 129.15 07/04/2023 00:51:45 -73.79, -12.62 129.22 16.92 72
9 07/04/2023 01:41:15 73.62, 154.72 50.63 07/04/2023 01:41:08 73.64, 154.74 50.65 2.40 7
10 07/04/2023 02:31:50 -73.13, -36.83 129.87 07/04/2023 02:30:41 -73.17, -38.57 129.82 56.43 69
11 07/06/2023 12:54:37 73.70, -13.76 50.93 07/06/2023 12:55:40 73.68, -13.84 50.92 2.93 63
12 07/06/2023 13:45:21 -73.65, 153.66 129.11 07/06/2023 13:45:05 -73.63, 153.71 129.13 2.38 16



Historial Predications of SNOs between FY3D and TERRA
